| time (UTC) | temp F | wind direction | speed MPH | gust MPH | rain 1hr in | rain 24hr in | rain mn in | humidity % | barometer mb |
| 20260507064532 | 54 | 266 | 5.0 | 15.0 | 0.00 | 0.00 | 0.00 | 69 | 1020.0 |
| 20260507063033 | 55 | 264 | 5.0 | 15.0 | 0.00 | 0.00 | 0.00 | 69 | 1020.2 |
| 20260507061535 | 54 | 267 | 4.0 | 16.0 | 0.00 | 0.00 | 0.00 | 69 | 1020.3 |
| 20260507060106 | 55 | 322 | 4.0 | 10.0 | 0.00 | 0.00 | 0.00 | 68 | 1020.4 |
| 20260507053032 | 56 | 284 | 5.0 | 12.0 | 0.00 | 0.00 | 0.00 | 65 | 1020.5 |
| 20260507050037 | 56 | 202 | 5.0 | 21.0 | 0.00 | 0.00 | 0.00 | 62 | 1020.6 |
| 20260507044534 | 56 | 252 | 6.0 | 17.0 | 0.00 | 0.00 | 0.00 | 62 | 1020.3 |
| 20260507041529 | 57 | 209 | 7.0 | 15.0 | 0.00 | 0.00 | 0.00 | 60 | 1020.4 |
| 20260507040045 | 56 | 207 | 6.0 | 12.0 | 0.00 | 0.00 | 0.00 | 59 | 1020.3 |
| 20260507034607 | 57 | 243 | 3.0 | 9.0 | 0.00 | 0.00 | 0.00 | 58 | 1020.3 |
| 20260507033031 | 58 | 233 | 4.0 | 10.0 | 0.00 | 0.00 | 0.00 | 58 | 1020.3 |
| 20260507031530 | 59 | 228 | 3.0 | 7.0 | 0.00 | 0.00 | 0.00 | 59 | 1020.3 |
| 20260507030038 | 60 | 246 | 3.0 | 12.0 | 0.00 | 0.00 | 0.00 | 58 | 1020.3 |
| 20260507024535 | 61 | 260 | 6.0 | 12.0 | 0.00 | 0.00 | 0.00 | 56 | 1020.3 |
| 20260507023150 | 63 | 262 | 8.0 | 19.0 | 0.00 | 0.00 | 0.00 | 54 | 1020.2 |
| 20260507021532 | 64 | 260 | 7.0 | 20.0 | 0.00 | 0.00 | 0.00 | 51 | 1020.0 |
| 20260507020029 | 65 | 264 | 8.0 | 23.0 | 0.00 | 0.00 | 0.00 | 50 | 1019.8 |
| 20260507014552 | 66 | 256 | 7.0 | 14.0 | 0.00 | 0.00 | 0.00 | 48 | 1019.7 |
| 20260507013148 | 67 | 257 | 8.0 | 18.0 | 0.00 | 0.00 | 0.00 | 46 | 1019.6 |
| 20260507011535 | 67 | 245 | 7.0 | 18.0 | 0.00 | 0.00 | 0.00 | 46 | 1019.8 |
| 20260507010031 | 68 | 242 | 7.0 | 15.0 | 0.00 | 0.00 | 0.00 | 44 | 1019.8 |
| 20260507004530 | 70 | 234 | 6.0 | 15.0 | 0.00 | 0.00 | 0.00 | 41 | 1019.7 |
| 20260507003033 | 71 | 224 | 8.0 | 18.0 | 0.00 | 0.00 | 0.00 | 41 | 1019.6 |
| 20260507001606 | 71 | 231 | 7.0 | 20.0 | 0.00 | 0.00 | 0.00 | 41 | 1019.5 |
| 20260507000030 | 71 | 237 | 7.0 | 22.0 | 0.00 | 0.00 | 0.00 | 40 | 1019.4 |
| 20260506234536 | 73 | 255 | 9.0 | 22.0 | 0.00 | 0.00 | 0.00 | 38 | 1019.2 |
| 20260506233035 | 74 | 252 | 7.0 | 18.0 | 0.00 | 0.00 | 0.00 | 38 | 1019.2 |
| 20260506231531 | 74 | 233 | 6.0 | 17.0 | 0.00 | 0.00 | 0.00 | 38 | 1019.2 |
| 20260506230107 | 74 | 243 | 7.0 | 20.0 | 0.00 | 0.00 | 0.00 | 38 | 1019.2 |
| 20260506224607 | 74 | 234 | 7.0 | 21.0 | 0.00 | 0.00 | 0.00 | 39 | 1019.3 |
| 20260506223107 | 73 | 240 | 7.0 | 22.0 | 0.00 | 0.00 | 0.00 | 40 | 1019.5 |
| 20260506221535 | 73 | 270 | 7.0 | 17.0 | 0.00 | 0.00 | 0.00 | 39 | 1019.6 |
| 20260506220032 | 74 | 267 | 9.0 | 22.0 | 0.00 | 0.00 | 0.00 | 38 | 1019.4 |
| 20260506211534 | 74 | 278 | 5.0 | 16.0 | 0.00 | 0.00 | 0.00 | 42 | 1019.4 |
| 20260506210032 | 74 | 274 | 7.0 | 19.0 | 0.00 | 0.00 | 0.00 | 43 | 1019.5 |
| 20260506204535 | 73 | 300 | 6.0 | 16.0 | 0.00 | 0.00 | 0.00 | 44 | 1019.6 |
| 20260506200029 | 74 | 291 | 7.0 | 18.0 | 0.00 | 0.00 | 0.00 | 44 | 1019.6 |
| 20260506191641 | 71 | 298 | 7.0 | 17.0 | 0.00 | 0.00 | 0.00 | 49 | 1019.7 |
| 20260506184531 | 70 | 352 | 9.0 | 16.0 | 0.00 | 0.00 | 0.00 | 52 | 1019.5 |
| 20260506181535 | 69 | 319 | 8.0 | 18.0 | 0.00 | 0.00 | 0.00 | 54 | 1019.8 |
| 20260506180031 | 68 | 346 | 8.0 | 15.0 | 0.00 | 0.00 | 0.00 | 56 | 1019.8 |
| 20260506174534 | 67 | 348 | 6.0 | 13.0 | 0.00 | 0.00 | 0.00 | 59 | 1019.7 |
| 20260506173034 | 66 | 9 | 5.0 | 9.0 | 0.00 | 0.00 | 0.00 | 60 | 1019.6 |
| 20260506171534 | 65 | 1 | 6.0 | 10.0 | 0.00 | 0.00 | 0.00 | 61 | 1019.7 |
| 20260506170033 | 64 | 14 | 5.0 | 9.0 | 0.00 | 0.00 | 0.00 | 63 | 1019.6 |
| 20260506164530 | 63 | 29 | 8.0 | 15.0 | 0.00 | 0.00 | 0.00 | 65 | 1019.8 |
| 20260506163107 | 63 | 26 | 8.0 | 12.0 | 0.00 | 0.00 | 0.00 | 66 | 1020.0 |
| 20260506161535 | 62 | 12 | 7.0 | 12.0 | 0.00 | 0.00 | 0.00 | 68 | 1020.1 |
| 20260506160031 | 61 | 26 | 5.0 | 9.0 | 0.00 | 0.00 | 0.00 | 69 | 1019.9 |
| 20260506154652 | 60 | 344 | 5.0 | 9.0 | 0.00 | 0.00 | 0.00 | 69 | 1020.0 |
| 20260506151643 | 60 | 64 | 1.0 | 5.0 | 0.00 | 0.00 | 0.00 | 73 | 1019.6 |
| 20260506150033 | 59 | 95 | 1.0 | 3.0 | 0.00 | 0.00 | 0.00 | 76 | 1019.8 |
| 20260506144531 | 59 | 108 | 1.0 | 4.0 | 0.00 | 0.00 | 0.00 | 81 | 1019.8 |
| 20260506143107 | 56 | 82 | 0.0 | 3.0 | 0.00 | 0.00 | 0.00 | 85 | 1019.8 |
| 20260506141535 | 53 | 82 | 1.0 | 5.0 | 0.00 | 0.00 | 0.00 | 89 | 1019.7 |
| 20260506140032 | 49 | 132 | 3.0 | 6.0 | 0.00 | 0.00 | 0.00 | 92 | 1019.6 |
| 20260506134606 | 45 | 142 | 4.0 | 6.0 | 0.00 | 0.00 | 0.00 | 92 | 1019.3 |
| 20260506133032 | 44 | 136 | 3.0 | 5.0 | 0.00 | 0.00 | 0.00 | 92 | 1019.2 |
| 20260506131645 | 43 | 145 | 3.0 | 6.0 | 0.00 | 0.00 | 0.00 | 92 | 1019.1 |
| 20260506130107 | 43 | 173 | 3.0 | 6.0 | 0.00 | 0.00 | 0.00 | 92 | 1019.0 |
| 20260506123036 | 43 | 180 | 4.0 | 5.0 | 0.00 | 0.00 | 0.00 | 92 | 1018.7 |
| 20260506121534 | 43 | 180 | 4.0 | 5.0 | 0.00 | 0.00 | 0.00 | 92 | 1018.5 |
| 20260506120035 | 43 | 184 | 4.0 | 5.0 | 0.00 | 0.00 | 0.00 | 91 | 1018.4 |
| 20260506114535 | 44 | 180 | 4.0 | 6.0 | 0.00 | 0.00 | 0.00 | 91 | 1018.3 |
| 20260506113034 | 44 | 200 | 4.0 | 5.0 | 0.00 | 0.00 | 0.00 | 91 | 1018.1 |
| 20260506111536 | 44 | 188 | 4.0 | 5.0 | 0.00 | 0.00 | 0.00 | 91 | 1018.0 |
| 20260506110030 | 44 | 180 | 4.0 | 5.0 | 0.00 | 0.00 | 0.00 | 91 | 1018.0 |
| 20260506104532 | 44 | 180 | 3.0 | 4.0 | 0.00 | 0.00 | 0.00 | 90 | 1017.8 |
| 20260506101530 | 45 | 158 | 1.0 | 3.0 | 0.00 | 0.00 | 0.00 | 90 | 1017.6 |
| 20260506100057 | 45 | 203 | 1.0 | 4.0 | 0.00 | 0.00 | 0.00 | 90 | 1017.6 |
| 20260506093142 | 45 | 180 | 1.0 | 4.0 | 0.00 | 0.00 | 0.00 | 89 | 1017.5 |
| 20260506091532 | 45 | 196 | 2.0 | 4.0 | 0.00 | 0.00 | 0.00 | 88 | 1017.4 |
| 20260506090035 | 46 | 202 | 2.0 | 4.0 | 0.00 | 0.00 | 0.00 | 88 | 1017.5 |
| 20260506084530 | 46 | 196 | 1.0 | 4.0 | 0.00 | 0.00 | 0.00 | 87 | 1017.3 |
| 20260506083110 | 47 | 168 | 1.0 | 4.0 | 0.00 | 0.00 | 0.00 | 86 | 1017.2 |
| 20260506081529 | 48 | 202 | 0.0 | 4.0 | 0.00 | 0.00 | 0.00 | 86 | 1017.1 |
| 20260506073032 | 50 | 253 | 0.0 | 0.0 | 0.00 | 0.00 | 0.00 | 84 | 1016.8 |